Regional Weather Roundup
Issued by NWS Austin/San Antonio, TX

Home | Current Version | Previous Version | Text Only | Print | Product List | Glossary On
Versions: 1 2 3 4 5 6 7 8 9 10 11 12 13 14 15 16 17 18 19 20 21 22 23 24 25 26 27 28 29 30 31 32 33 34 35 36 37 38 39 40 41 42 43 44 45 46 47 48 49 50
000
ASUS44 KEWX 132210
RWREWX
SOUTH TEXAS REGIONAL WEATHER ROUNDUP
NATIONAL WEATHER SERVICE AUSTIN/SAN ANTONIO TX
400 PM CST WED DEC 13 2017

NOTE: "FAIR" INDICATED FEW OR NO CLOUDS BELOW 12,000 FEET WITH NO
SIGNIFICANT WEATHER AND/OR OBSTRUCTIONS TO VISIBILITY.

* - THESE STATIONS ARE NOT NWS OR FAA STATIONS...AND ARE NOT SUBJECT
    TO NWS AND FAA QUALITY CONTROL.

TXZ171-172-183>190-132300-
TEXAS HILL COUNTRY AND EDWARDS PLATEAU

CITY           SKY/WX    TMP DP  RH WIND       PRES   REMARKS
JUNCTION       CLOUDY    62  25  24 SW10G21   29.99F
*LLANO         CLOUDY    68  30  24 SW10      29.99F
BURNET         CLOUDY    64  31  28 S10       29.99F
*HORSESHOE BAY CLOUDY    64  32  29 SW3       29.98F
*KERRVILLE     CLOUDY    59  27  29 S9        30.01F
*FREDERICKSBRG CLOUDY    59  29  31 SW12      30.01S
*ROCKSPRINGS   NOT AVBL
*BOERNE STAGE  CLOUDY    55  32  41 SW7       30.03F
*CASTROVILLE   CLOUDY    60  31  33 SW8       30.05F
HONDO          CLOUDY    62  34  35 SW7       30.04F
*UVALDE        CLOUDY    59  35  40 SW5       30.06F
DEL RIO        CLOUDY    57  38  48 SE6       30.02F
LAUGHLIN AFB   PTSUNNY   59  35  41 SE8       30.02F
CARRIZO SPRGS  CLOUDY    61  37  41 CALM      30.03F
*EAGLE PASS    CLEAR     59  37  44 SE5       30.03F
$$

TXZ173-191>194-202-209-217>225-228-132300-
CENTRAL AND SOUTH CENTRAL TEXAS

CITY           SKY/WX    TMP DP  RH WIND       PRES   REMARKS
GEORGETOWN     CLOUDY    62  34  35 S15       29.99F
AUSTIN/BERGSTM CLOUDY    61  33  35 S13       30.01F
AUSTIN/MABRY   CLOUDY    61  34  36 S7        30.01F
*AUSTIN/EXEC   CLOUDY    59  32  36 S13G18    30.01F
*LAGO VISTA    CLOUDY    62  33  34 SW8       29.99F
SAN MARCOS     CLOUDY    59  34  39 SW12      30.03F
NEW BRAUNFELS  CLOUDY    59  34  39 SW12      30.02F
RANDOLPH AFB   CLOUDY    59  33  37 S10       30.02F
PT SAN ANTONIO CLOUDY    61  34  36 SW6       30.01F
SAN ANTONIO    CLOUDY    60  33  36 SW8       30.04F
STINSON FIELD  CLOUDY    62  34  35 SW7       30.02F
*LA GRANGE     CLOUDY    60  37  42 SW6       30.02S
*GIDDINGS      CLOUDY    59  33  37 SW9       30.04S
*GONZALES      CLOUDY    61  36  39 SW8       30.04F
$$

TXZ163>164-176>182-195>201-210>213-226-227-235-132300-
SOUTHEAST TEXAS

CITY           SKY/WX    TMP DP  RH WIND       PRES   REMARKS
COLLEGE STN    CLOUDY    59  34  39 SW10      30.01F
*BRYAN         CLOUDY    58  33  39 S7        30.02F
*CALDWELL      CLOUDY    58  34  40 S15       30.01F
*CROCKETT        N/A     55  32  41 SW7       30.02S
*BRENHAM       CLOUDY    60  34  38 SW10      30.04S
HUNTSVILLE     CLOUDY    57  34  41 S10       30.01F
CONROE         CLOUDY    57  34  41 SW6       30.03F
HOUSTON BUSH   CLOUDY    58  32  37 SW5       30.04F
HOUSTON HOBBY  PTSUNNY   58  32  37 S3        30.04F
*HOUSTON SW AP MOSUNNY   57  33  40 SW3       30.06F
PEARLAND       MOSUNNY   58  33  39 SW3       30.06F
HOUSTON HOOKS  MOSUNNY   58  34  40 SW9       30.04F
ELLINGTON FLD  PTSUNNY   59  34  38 S6        30.07R
SUGAR LAND     MOSUNNY   59  34  39 SW5       30.05F
*HOUSTON EXEC  NOT AVBL
*CLEVELAND MUN MOSUNNY   56  30  37 SW5       30.04F
*WHARTON       CLOUDY    59  32  36 S5        30.06F
*COLUMBUS        N/A    N/A N/A N/A MISG        N/A
*EAGLE LAKE    CLOUDY    59  36  42 SW6       30.05F
$$

TXZ214>216-236>238-132300-
THE UPPER TEXAS COAST

CITY           SKY/WX    TMP DP  RH WIND       PRES   REMARKS
*ORANGE        CLOUDY    58  41  52 SW7       30.05F
PORT ARTHUR    CLOUDY    57  38  48 SW8       30.03F
GALVESTON      CLOUDY    61  37  41 SW7       30.06F
ANGLETON       PTSUNNY   61  32  33 SW3       30.05F
*BAY CITY      CLOUDY    62  33  33 SW7       30.06S
PALACIOS       CLOUDY    59  39  47 S7        30.06F
$$

TXZ229>234-239>247-132300-
TEXAS COASTAL BEND AND RIO GRANDE PLAINS

CITY           SKY/WX    TMP DP  RH WIND       PRES   REMARKS
VICTORIA       CLOUDY    63  33  32 SW6       30.05F
*BEEVILLE      CLOUDY    64  36  36 S5        30.05F
ROCKPORT       PTSUNNY   62  42  47 VRB3      30.06F
*PORT ARANSAS  NOT AVBL
*PORT LAVACA   CLOUDY    60  40  47 S5        30.07F
*INGLESIDE     PTSUNNY   64  43  46 SE5       30.06F
CORPUS CHRISTI CLOUDY    63  47  55 S6        30.06F
CORPUS NAS     CLOUDY    66  43  43 S8        30.06F
*ROBSTOWN      PTSUNNY   64  42  44 S6        30.06F
ALICE          PTSUNNY   64  38  38 S6        30.05F
KINGSVILLE NAS CLOUDY    67  40  37 S6        30.05F
COTULLA        CLOUDY    63  34  33 SW6       30.04F
*FAITH RANCH   SUNNY     61  41  48 S3        30.03F
LAREDO           N/A    N/A N/A N/A MISG        N/A
$$

TXZ248>255-132300-
DEEP SOUTH TEXAS

CITY           SKY/WX    TMP DP  RH WIND       PRES   REMARKS
BROWNSVILLE    CLOUDY    71  46  40 E5        30.05F
PORT ISABEL    CLOUDY    64  45  49 NE6       30.04F
*SOUTH PADRE   NOT AVBL
HARLINGEN      MOSUNNY   67  46  47 E3        30.04F
*HEBBRONVILLE  CLOUDY    64  29  27 CALM      30.05F
MCALLEN        CLOUDY    66  40  38 E5        30.04F
*WESLACO       MOSUNNY   64  41  42 CALM      30.03F
FALFURRIAS     PTSUNNY   66  32  28 S5        30.05F
EDINBURG       CLOUDY    67  33  28 E3        30.04F
*ZAPATA        CLOUDY    64  33  31 SE6       30.03F
$$

TXZ213>215-236>238-242>244-246-247-251-254-255-132300-
CMAN STATIONS

STATION/POSITION TIME  TEMP    WIND        PRES    WAVE
                       AIR SEA DIR/SP/G            HT/PER
                 (UTC) (F)     (DEG/KT/KT) (MB)    (FT/S)
SABINE PASS      2136   58 58  220/  5/ 11 1019.0
SEA RIM ST PARK  2100   57     240/ 10/ 12 1018.5
NORTH JETTY/GLS  2136      60  210/  7/  9 1017.1
EAGLE POINT      2136   58 56  240/  2/  3 1017.5
MORGANS POINT    2136   58 57  190/  5/  7 1017.3
PORT O`CONNOR    2148   58 56  200/  5/  7 1017.7
MALAQUITE BEACH  2148   63 63  150/  9/ 10 1017.5
BAFFIN BAY       2142   62 58  120/  4/  6 1018.0
PORT ISABEL      2142   64 58   50/  5/  6 1017.4
$$




USA.gov is the U.S. government's official web portal to all federal, state and local government web resources and services.